Weather History for Smyrna, TN

Change the Weather History Date:

Friday, August 9, 2013

  Actual Average Record
Temperature  
Mean Temperature 82 °F -  
Max Temperature 91 °F 84 °F 108 °F (2007)
Min Temperature 72 °F 67 °F 59 °F (2008)
Cooling Degree Days 16    
Growing Degree Days 32 (Base 50)    
Moisture  
Dew Point 74 °F    
Average Humidity 84    
Maximum Humidity 100    
Minimum Humidity 66    
Precipitation  
Precipitation 0.00 in - - ()
Sea Level Pressure  
Sea Level Pressure 30.03 in    
Wind  
Wind Speed 4 mph (SSW)    
Max Wind Speed 9 mph    
Max Gust Speed -    
Visibility 10 miles    
Events      
Averages and records for this station are not official NWS values.
T = Trace of Precipitation, MM = Missing Value Source: NWS Daily Summary

Daily Weather History Graph

Daily Weather History Graph

Search for Another Location

Airport:

Trip Planner

Search our weather history database for the weather conditions in past years. The results will help you decide how hot, cold, wet, or windy it might be!

Date:

Astronomy

Aug. 09, 2013 Rise Set
Actual Time 5:59 AM CDT 7:42 PM CDT
Civil Twilight 5:32 AM CDT 8:10 PM CDT
Nautical Twilight 4:58 AM CDT 8:43 PM CDT
Astronomical Twilight 4:23 AM CDT 9:18 PM CDT
Moon 8:38 AM CDT (8/9) 9:00 PM CDT (8/9)
Length of Visible Light 14h 37m
Length of Day
13h 42m
Waxing Crescent, 8% of the Moon is Illuminated
Aug 9
Waxing Crescent
Aug 14
First Quarter
Aug 20
Full
Aug 28
Last Quarter
Sep 5
New

Hourly Weather History & Observations

Time (CDT) Temp. Heat Index Dew Point Humidity Pressure Visibility Wind Dir Wind Speed Gust Speed Precip Events Conditions
12:56 AM 72.0 °F - 70.9 °F 96% 30.01 in 10.0 mi South 3.5 mph - N/A   Clear
1:56 AM 72.0 °F - 70.9 °F 96% 30.02 in 10.0 mi Calm Calm - N/A   Clear
2:56 AM 72.0 °F - 72.0 °F 100% 30.01 in 10.0 mi South 5.8 mph - N/A   Partly Cloudy
3:56 AM 72.0 °F - 70.9 °F 96% 30.00 in 10.0 mi Calm Calm - N/A   Clear
4:56 AM 72.0 °F - 70.9 °F 96% 30.00 in 10.0 mi South 6.9 mph - N/A   Clear
5:56 AM 72.9 °F - 72.0 °F 97% 30.02 in 10.0 mi South 4.6 mph - N/A   Clear
6:56 AM 73.9 °F - 72.9 °F 96% 30.05 in 10.0 mi West 3.5 mph - N/A   Scattered Clouds
7:07 AM 75.2 °F - 73.4 °F 94% 30.04 in 10.0 mi West 3.5 mph - N/A   Mostly Cloudy
7:56 AM 74.8 °F - 73.9 °F 97% 30.07 in 10.0 mi SE 3.5 mph - N/A   Overcast
8:56 AM 77.9 °F - 74.8 °F 90% 30.06 in 10.0 mi Variable 3.5 mph - N/A   Overcast
9:08 AM 78.8 °F - 73.4 °F 83% 30.05 in 10.0 mi SW 3.5 mph - N/A   Mostly Cloudy
9:56 AM 81.0 °F 87.3 °F 75.9 °F 85% 30.07 in 10.0 mi Variable 5.8 mph - N/A   Scattered Clouds
10:56 AM 84.9 °F 95.3 °F 77.0 °F 77% 30.06 in 10.0 mi Variable 3.5 mph - N/A   Mostly Cloudy
11:56 AM 86.9 °F 98.3 °F 77.0 °F 72% 30.05 in 10.0 mi Variable 3.5 mph - N/A   Scattered Clouds
12:56 PM 88.9 °F 102.7 °F 77.9 °F 70% 30.03 in 10.0 mi Variable 5.8 mph - N/A   Scattered Clouds
1:56 PM 90.0 °F 103.8 °F 77.9 °F 67% 30.02 in 10.0 mi SSW 8.1 mph - N/A   Scattered Clouds
2:34 PM 91.4 °F 107.2 °F 78.8 °F 66% 29.99 in 10.0 mi SSW 8.1 mph - N/A   Mostly Cloudy
2:42 PM 89.6 °F 102.2 °F 77.0 °F 66% 30.00 in 10.0 mi SSW 8.1 mph - N/A   Scattered Clouds
2:56 PM 90.0 °F 103.8 °F 77.9 °F 67% 30.00 in 10.0 mi SSW 8.1 mph - N/A   Scattered Clouds
3:56 PM 86.9 °F 99.3 °F 77.9 °F 74% 30.00 in 10.0 mi SSW 9.2 mph - N/A   Partly Cloudy
4:56 PM 83.8 °F 90.8 °F 73.9 °F 72% 30.01 in 10.0 mi SW 6.9 mph - N/A   Clear
5:56 PM 81.9 °F 87.7 °F 73.9 °F 77% 30.02 in 10.0 mi Variable 5.8 mph - N/A   Clear
6:56 PM 81.0 °F 86.2 °F 73.9 °F 79% 30.02 in 10.0 mi Calm Calm - N/A   Clear
7:56 PM 79.9 °F - 73.9 °F 82% 30.05 in 10.0 mi Calm Calm - N/A   Clear
8:56 PM 77.9 °F - 73.9 °F 88% 30.06 in 10.0 mi Calm Calm - N/A   Clear
9:56 PM 77.9 °F - 73.9 °F 88% 30.08 in 10.0 mi Calm Calm - N/A   Clear
10:56 PM 77.0 °F - 74.8 °F 93% 30.08 in 10.0 mi Calm Calm - N/A   Clear
11:56 PM 74.8 °F - 73.9 °F 97% 30.07 in 10.0 mi SSE 4.6 mph - N/A   Clear